Regional Weather Roundup
Issued by NWS

Home | Current Version | Previous Version | Graphics & Text | Print | Product List | Glossary On
Versions: 1 2 3 4 5 6 7 8 9 10 11 12 13 14 15 16 17 18 19 20 21 22 23 24 25 26 27 28 29 30 31 32 33 34 35 36 37 38 39 40 41 42 43 44 45 46 47 48 49 50
000
ASUS43 KOAX 222210
RWRNE

WEATHER ROUNDUP FOR NEBRASKA
NATIONAL WEATHER SERVICE OMAHA NE
400 PM CST MON JAN 22 2018

NOTES: SATELLITE DATA IS BEING USED TO AUGMENT CLOUD COVER ABOVE
       12000 FEET.
       "FAIR" INDICATES FEW OR NO CLOUDS BELOW 12,000 FEET WITH NO
       SIGNIFICANT WEATHER AND/OR OBSTRUCTIONS TO VISIBILITY.


NEZ001>004-019>022-054>056-222300-
NEBRASKA PANHANDLE

CITY           SKY/WX    TMP DP  RH WIND       PRES   REMARKS
SCOTTSBLUFF    SUNNY     32  19  58 NW18      30.00R WCI  20
ALLIANCE       SUNNY     30  16  56 NW13      29.96R WCI  20
CHADRON        SUNNY     23  14  68 W7        30.01R WCI  15
GORDON         FAIR      29  17  60 NW10      29.95R WCI  19
KIMBALL        SUNNY     31  18  57 NW17G25   29.99R WCI  20
SIDNEY         SUNNY     32  20  61 NW22      29.96R WCI  19
$$

NEZ057>060-069>072-079>082-222300-
SOUTHWEST NEBRASKA

CITY           SKY/WX    TMP DP  RH WIND       PRES   REMARKS
NORTH PLATTE   SUNNY     33  21  61 NW17      29.91R WCI  22
IMPERIAL       MIX PCPN  31  20  63 NW18      29.94R WCI  19
LEXINGTON      PTSUNNY   32  25  74 NW14      29.87R WCI  22
MCCOOK         SUNNY     33  23  66 NW23      29.91R WCI  21
OGALLALA       SUNNY     33  20  59 NW17      29.95R WCI  22
$$

NEZ005>010-023>029-035>040-094-222300-
NORTH CENTRAL NEBRASKA

CITY           SKY/WX    TMP DP  RH WIND       PRES   REMARKS
VALENTINE      SUNNY     31  21  66 NW14      29.93R WCI  21
AINSWORTH      SUNNY     29  24  82 N22       29.90R WCI  15
BROKEN BOW     PTSUNNY   32  22  66 NW25G32   29.85R WCI  19
O`NEILL        CLOUDY    25  23  93 N21G32    29.85R WCI  10
ORD            CLOUDY    30  22  72 N21       29.81R WCI  17
THEDFORD       SUNNY     31  22  70 NW16G22   29.91R WCI  20
$$

NEZ041-046>049-061>064-073>077-083>087-222300-
SOUTH CENTRAL NEBRASKA

CITY           SKY/WX    TMP DP  RH WIND       PRES   REMARKS
GRAND ISLAND   LGT SNOW  28  24  85 NW22G31   29.78R FOG     WCI  14
AURORA           N/A     28  26  93 NW35G43   29.75R WCI  11
HASTINGS       MIX PCPN  31  23  72 NW26G38   29.79R WCI  17
HEBRON         LGT SNOW  32  29  88 NW23G31   29.71R WCI  19
HOLDREGE       CLOUDY    32  27  80 NW10      29.83R WCI  24
YORK           LGT SNOW  27  27 100 N25G35    29.71R VSB 3/4 WCI  11
$$

NEZ011>018-030>034-042>045-222300-
NORTHEAST NEBRASKA

CITY           SKY/WX    TMP DP  RH WIND       PRES   REMARKS
NORFOLK        FOG       25  22  88 NW32G40   29.72R VSB 3/4 WCI   8
ALBION         SNOW      26  23  88 N30G39    29.77R VSB 1/2 WCI   9
BLAIR          CLOUDY    30  28  93 N26G41    29.56R WCI  16
COLUMBUS       LGT SNOW  27  25  93 MISG      29.71R VSB 3/4
FREMONT          N/A    N/A N/A N/A MISG        N/A
TEKAMAH        FOG       30  29  96 N37G48    29.63R VSB 1/4 WCI  14
WAYNE            N/A     27  26  96 NW28G40   29.70R WCI  11
$$

NEZ050>053-065>068-078-088>093-222300-
SOUTHEAST NEBRASKA

CITY           SKY/WX    TMP DP  RH WIND       PRES   REMARKS
LINCOLN        SNOW      30  27  88 NW25G39   29.66R VSB 1/2 WCI  16
OMAHA EPPLEY   LGT SNOW  31  29  92 N35G46    29.58R VSB 1   WCI  15
BEATRICE       LGT SNOW  31  29  93 NW29G39   29.64R VSB 1   WCI  16
FALLS CITY     CLOUDY    33  31  92 NW24G33   29.49R FOG     WCI  20
NEBRASKA CITY  CLOUDY    32  32 100 N29G39    29.52R WCI  18
PLATTSMOUTH    CLOUDY    31  31  97 NW22G33   29.54R FOG     WCI  18
$$

NEZ044-045-051>053-067-222300-
OMAHA AREA

CITY           SKY/WX    TMP DP  RH WIND       PRES   REMARKS
OMAHA EPPLEY   LGT SNOW  31  29  92 N35G46    29.58R VSB 1   WCI  15
BLAIR          CLOUDY    30  28  93 N26G41    29.56R WCI  16
FREMONT          N/A    N/A N/A N/A MISG        N/A
MILLARD        LGT SNOW  32  30  91 NW20G32   29.59R VSB 1   WCI  20
OFFUTT AFB     LGT SNOW  32  29  90 NW22G30   29.55R FOG     WCI  19
PLATTSMOUTH    CLOUDY    31  31  97 NW22G33   29.54R FOG     WCI  18
WAHOO          CLOUDY    29  28  94 N31G43    29.63R WCI  13
$$




USA.gov is the U.S. government's official web portal to all federal, state and local government web resources and services.